User: anonymous   Login
Location: Unspecified
(0.0000°N, 0.0000°E)
Time: 01:06:49
(UTC+00:00)
Language:

SKYCRAFT 4D - Orbit

View from above orbital plane
View from above orbital plane
View from above satellite
View from above satellite

Ground track
Ground track

The orbit is defined by the following mean orbital elements,

1 64898U          26145.63689817 +.00000000 +00000-0 +51345-3 0 00005
2 64898  97.6679 210.2612 0003675 343.8767  16.2337 14.95913363    00
Epoch (UTC): 25 May 2026 15:17:08
Eccentricity: 0.0003675
inclination: 97.6679°
perigee height: 577 km
apogee height: 582 km
right ascension of ascending node: 210.2612°
argument of perigee: 343.8767°
revolutions per day: 14.95913363
mean anomaly at epoch: 16.2337°

The dashed part of the orbit path shows where the satellite is in the earth's shadow,  

DLR